Weather History for Cody, WY

Change the Weather History Date:

Sunday, November 18, 2012

  Actual Average Record
Temperature  
Mean Temperature 44 °F -  
Max Temperature 55 °F 45 °F 69 °F (1949)
Min Temperature 33 °F 23 °F 0 °F (1937)
Degree Days  
Heating Degree Days 21    
Moisture  
Dew Point 26 °F    
Average Humidity 53    
Maximum Humidity 75    
Minimum Humidity 30    
Precipitation  
Precipitation 0.00 in - - ()
Sea Level Pressure  
Sea Level Pressure 29.87 in    
Wind  
Wind Speed 7 mph (SW)    
Max Wind Speed 18 mph    
Max Gust Speed 26 mph    
Visibility 10 miles    
Events      
Averages and records for this station are not official NWS values.
T = Trace of Precipitation, MM = Missing Value Source: NWS Daily Summary

Daily Weather History Graph

Daily Weather History Graph

Search for Another Location

Airport:

Trip Planner

Search our weather history database for the weather conditions in past years. The results will help you decide how hot, cold, wet, or windy it might be!

Date:

Astronomy

Nov. 18, 2012 Rise Set
Actual Time 7:17 AM MST 4:45 PM MST
Civil Twilight 6:45 AM MST 5:17 PM MST
Nautical Twilight 6:09 AM MST 5:52 PM MST
Astronomical Twilight 5:35 AM MST 6:27 PM MST
Moon 11:43 AM MST (11/18) 10:12 PM MST (11/18)
Length of Visible Light 10h 31m
Length of Day
9h 28m
Waxing Crescent, 31% of the Moon is Illuminated
Nov 18
Waxing Crescent
Nov 20
First Quarter
Nov 28
Full
Dec 6
Last Quarter
Dec 13
New

Hourly Weather History & Observations

Time (MST) Temp. Windchill Dew Point Humidity Pressure Visibility Wind Dir Wind Speed Gust Speed Precip Events Conditions
12:15 AM 35.6 °F 29.2 °F 26.6 °F 70% 29.84 in 10.0 mi SSE 8.1 mph - N/A   Clear
12:55 AM 33.8 °F - 26.6 °F 75% 29.84 in 10.0 mi Calm Calm - N/A   Clear
1:15 AM 33.8 °F 27.7 °F 26.6 °F 75% 29.82 in 10.0 mi South 6.9 mph - N/A   Clear
1:35 AM 33.8 °F 27.7 °F 26.6 °F 75% 29.83 in 10.0 mi SSE 6.9 mph - N/A   Clear
1:55 AM 35.6 °F 29.9 °F 26.6 °F 70% 29.82 in 10.0 mi SSE 6.9 mph - N/A   Mostly Cloudy
2:15 AM 37.4 °F 31.4 °F 26.6 °F 65% 29.82 in 10.0 mi SSE 8.1 mph - N/A   Scattered Clouds
2:35 AM 37.4 °F 34.9 °F 26.6 °F 65% 29.82 in 10.0 mi West 3.5 mph - N/A   Clear
2:55 AM 37.4 °F 33.8 °F 26.6 °F 65% 29.81 in 10.0 mi SE 4.6 mph - N/A   Partly Cloudy
3:15 AM 37.4 °F 32.1 °F 26.6 °F 65% 29.81 in 10.0 mi SSE 6.9 mph - N/A   Mostly Cloudy
3:35 AM 37.4 °F 31.4 °F 26.6 °F 65% 29.80 in 10.0 mi SSE 8.1 mph - N/A   Overcast
3:55 AM 39.2 °F 32.0 °F 28.4 °F 65% 29.78 in 10.0 mi South 11.5 mph - N/A   Overcast
4:15 AM 39.2 °F 35.9 °F 28.4 °F 65% 29.78 in 10.0 mi WSW 4.6 mph - N/A   Overcast
4:35 AM 41.0 °F 36.4 °F 28.4 °F 61% 29.78 in 10.0 mi South 6.9 mph - N/A   Overcast
4:55 AM 41.0 °F 39.0 °F 28.4 °F 61% 29.79 in 10.0 mi SSE 3.5 mph - N/A   Overcast
5:15 AM 39.2 °F - 28.4 °F 65% 29.79 in 10.0 mi Calm Calm - N/A   Overcast
5:35 AM 41.0 °F 37.1 °F 30.2 °F 65% 29.78 in 10.0 mi SW 5.8 mph - N/A   Overcast
5:55 AM 35.6 °F - 26.6 °F 70% 29.79 in 10.0 mi Calm Calm - N/A   Mostly Cloudy
6:15 AM 35.6 °F - 28.4 °F 75% 29.78 in 10.0 mi Calm Calm - N/A   Overcast
6:35 AM 37.4 °F 34.9 °F 28.4 °F 70% 29.77 in 10.0 mi SSE 3.5 mph - N/A   Mostly Cloudy
6:55 AM 35.6 °F 29.2 °F 28.4 °F 75% 29.78 in 10.0 mi SSW 8.1 mph - N/A   Clear
7:15 AM 35.6 °F 32.8 °F 26.6 °F 70% 29.78 in 10.0 mi South 3.5 mph - N/A   Clear
7:35 AM 35.6 °F - 28.4 °F 75% 29.79 in 10.0 mi Calm Calm - N/A   Clear
7:55 AM 37.4 °F 32.8 °F 30.2 °F 75% 29.79 in 10.0 mi South 5.8 mph - N/A   Clear
8:15 AM 39.2 °F 33.6 °F 30.2 °F 70% 29.80 in 10.0 mi SW 8.1 mph - N/A   Scattered Clouds
8:35 AM 42.8 °F 39.3 °F 33.8 °F 70% 29.81 in 10.0 mi West 5.8 mph - N/A   Partly Cloudy
8:55 AM 44.6 °F 40.2 °F 30.2 °F 57% 29.82 in 10.0 mi SW 8.1 mph - N/A   Partly Cloudy
9:55 AM 50.0 °F - 30.2 °F 47% 29.82 in 10.0 mi South 11.5 mph - N/A   Scattered Clouds
10:16 AM 53.6 °F - 30.2 °F 41% 29.82 in 10.0 mi SW 11.5 mph 17.3 mph N/A   Clear
10:35 AM 53.6 °F - 28.4 °F 38% 29.83 in 10.0 mi SW 12.7 mph 19.6 mph N/A   Clear
10:55 AM 53.6 °F - 28.4 °F 38% 29.83 in 10.0 mi WSW 13.8 mph 19.6 mph N/A   Clear
11:15 AM 55.4 °F - 26.6 °F 33% 29.83 in 10.0 mi SW 16.1 mph 21.9 mph N/A   Clear
11:35 AM 55.4 °F - 26.6 °F 33% 29.84 in 10.0 mi WSW 9.2 mph 21.9 mph N/A   Scattered Clouds
11:55 AM 55.4 °F - 26.6 °F 33% 29.83 in 10.0 mi SW 9.2 mph 17.3 mph N/A   Overcast
12:15 PM 55.4 °F - 26.6 °F 33% 29.82 in 10.0 mi WSW 10.4 mph - N/A   Scattered Clouds
12:35 PM 55.4 °F - 24.8 °F 31% 29.83 in 10.0 mi WSW 12.7 mph 17.3 mph N/A   Clear
12:55 PM 55.4 °F - 26.6 °F 33% 29.84 in 10.0 mi West 12.7 mph 20.7 mph N/A   Partly Cloudy
1:15 PM 55.4 °F - 26.6 °F 33% 29.83 in 10.0 mi WSW 9.2 mph - N/A   Scattered Clouds
1:55 PM 53.6 °F - 26.6 °F 35% 29.85 in 10.0 mi West 18.4 mph 26.5 mph N/A   Mostly Cloudy
2:15 PM 53.6 °F - 24.8 °F 33% 29.86 in 10.0 mi West 16.1 mph 23.0 mph N/A   Mostly Cloudy
2:35 PM 53.6 °F - 24.8 °F 33% 29.86 in 10.0 mi WSW 11.5 mph 17.3 mph N/A   Mostly Cloudy
2:55 PM 53.6 °F - 24.8 °F 33% 29.88 in 10.0 mi West 15.0 mph 21.9 mph N/A   Clear
3:35 PM 51.8 °F - 24.8 °F 35% 29.90 in 10.0 mi WSW 15.0 mph 20.7 mph N/A   Partly Cloudy
3:55 PM 51.8 °F - 23.0 °F 33% 29.90 in 10.0 mi WSW 16.1 mph 21.9 mph N/A   Clear
4:15 PM 51.8 °F - 21.2 °F 30% 29.90 in 10.0 mi WSW 16.1 mph 23.0 mph N/A   Clear
4:35 PM 50.0 °F - 21.2 °F 32% 29.91 in 10.0 mi WSW 16.1 mph 23.0 mph N/A   Clear
4:55 PM 48.2 °F - 21.2 °F 34% 29.93 in 10.0 mi WSW 5.8 mph 16.1 mph N/A   Clear
5:15 PM 46.4 °F 41.9 °F 23.0 °F 40% 29.94 in 10.0 mi WSW 9.2 mph - N/A   Clear
5:35 PM 46.4 °F 41.9 °F 24.8 °F 43% 29.95 in 10.0 mi WSW 9.2 mph 16.1 mph N/A   Clear
5:55 PM 46.4 °F 41.5 °F 24.8 °F 43% 29.96 in 10.0 mi WSW 10.4 mph - N/A   Clear
6:15 PM 46.4 °F 41.5 °F 24.8 °F 43% 29.96 in 10.0 mi SW 10.4 mph - N/A   Scattered Clouds
6:35 PM 44.6 °F 43.1 °F 24.8 °F 46% 29.96 in 10.0 mi SW 3.5 mph - N/A   Scattered Clouds
6:55 PM 39.2 °F 33.6 °F 23.0 °F 52% 29.97 in 10.0 mi SSW 8.1 mph - N/A   Mostly Cloudy
7:15 PM 37.4 °F 31.4 °F 23.0 °F 56% 29.97 in 10.0 mi SSW 8.1 mph - N/A   Mostly Cloudy
7:35 PM 37.4 °F - 24.8 °F 60% 29.98 in 10.0 mi Calm Calm - N/A   Partly Cloudy
7:55 PM 42.8 °F 39.3 °F 23.0 °F 46% 29.99 in 10.0 mi WSW 5.8 mph - N/A   Partly Cloudy
8:15 PM 39.2 °F 34.2 °F 21.2 °F 49% 29.99 in 10.0 mi SW 6.9 mph - N/A   Clear
8:35 PM 39.2 °F 32.5 °F 23.0 °F 52% 29.99 in 10.0 mi SW 10.4 mph - N/A   Clear
8:55 PM 41.0 °F 35.8 °F 23.0 °F 49% 30.00 in 10.0 mi SW 8.1 mph - N/A   Clear
9:35 PM 39.2 °F 34.2 °F 23.0 °F 52% 30.01 in 10.0 mi WSW 6.9 mph - N/A   Partly Cloudy
9:55 PM 39.2 °F 33.6 °F 23.0 °F 52% 30.01 in 10.0 mi WSW 8.1 mph - N/A   Mostly Cloudy
10:15 PM 39.2 °F 33.6 °F 23.0 °F 52% 30.02 in 10.0 mi SW 8.1 mph - N/A   Overcast
10:35 PM 39.2 °F 34.2 °F 23.0 °F 52% 30.02 in 10.0 mi SW 6.9 mph - N/A   Overcast
10:55 PM 41.0 °F 36.4 °F 24.8 °F 53% 30.02 in 10.0 mi WSW 6.9 mph - N/A   Overcast
11:35 PM 39.2 °F 34.2 °F 24.8 °F 56% 30.02 in 10.0 mi WSW 6.9 mph - N/A   Partly Cloudy
11:55 PM 39.2 °F 33.6 °F 24.8 °F 56% 30.03 in 10.0 mi WSW 8.1 mph - N/A   Clear